AirNav   Everest Fuels
 
 1580 users online  

MS80 Hasting Airpark
Bruce, Mississippi, USA

GOING TO BRUCE?


FAA INFORMATION EFFECTIVE 09 SEPTEMBER 2021

Location

FAA Identifier: MS80
Lat/Long: 34-00-06.8600N 089-18-54.3400W
34-00.114333N 089-18.905667W
34.0019056,-89.3150944
(estimated)
Elevation: 275 ft. / 83.8 m (surveyed)
Variation: 02E (1985)
From city: 2 miles NE of BRUCE, MS
Time zone: UTC -5 (UTC -6 during Standard Time)
Zip code: 38915

Airport Operations

Airport use: Private use. Permission required prior to landing
Activation date: 10/1970
Control tower: no
ARTCC: MEMPHIS CENTER
FSS: GREENWOOD FLIGHT SERVICE STATION
Attendance: UNATNDD
Wind indicator: yes
Segmented circle: no
Lights: CALL 601-983-2275/4475.

Nearby radio navigation aids

VOR radial/distance  VOR name  Freq  Var
OTBr239/29.0TUPELO VOR/DME109.8004E

Airport Services

Parking: hangars and tiedowns
Airframe service: NONE
Powerplant service: NONE
Bottled oxygen: NONE
Bulk oxygen: NONE

Runway Information

Runway 18/36

Dimensions: 3200 x 80 ft. / 975 x 24 m
Surface: turf, in good condition
RWY SOFT WHEN WET.
Runway edge lights: low intensity
LIRL OTS INDEFLY
RUNWAY 18  RUNWAY 36
Traffic pattern: leftleft
Displaced threshold: 450 ft.
DSPLCD THR MARKED WITH TIRES PAINTED WHITE.
no
Obstructions: 84 ft. trees, 250 ft. from runway, 50 ft. left of centerline, 2:1 slope to clear
APCH RATIO 8:1 TO DSPLCD THR.
24 ft. trees, 100 ft. left and right of centerline
4 FT FENCE & BRUSH ON FENCE FROM +6 AT THR.

Airport Ownership and Management from official FAA records

Ownership: Privately-owned
Owner: JAMES M WADE
659 CR 418
CALHOUN CITY, MS 38916
Phone 662-628-5355
Manager: JAMES M WADE
659 CR 418
CALHOUN CITY, MS 38916
Phone 662-628-5355

Airport Operational Statistics

Aircraft based on the field: 2
Single engine airplanes: 2
    
Aircraft operations: avg 97/week *
83% local general aviation
17% transient general aviation
* for 12-month period ending 07 September 1995

Additional Remarks

FOR CD CTC MEMPHIS ARTCC AT 901-368-8453/8449.

Instrument Procedures

There are no published instrument procedures at MS80.

Some nearby airports with instrument procedures:

KUOX - University-Oxford Airport (25 nm NW)
KGNF - Grenada Municipal Airport (26 nm SW)
5A4 - Okolona Municipal Airport-Richard Stovall Field (29 nm E)
KTUP - Tupelo Regional Airport (31 nm NE)
M72 - New Albany-Union County Airport (36 nm NE)
 
Loc | Ops | Rwys | IFR | FBO | Links
Com | Nav | Svcs | Stats | Notes
Area around MS80 (Hasting Airpark)
 
Road maps at: MapQuest Bing Google
 
Aerial photo
No photo
 
Sectional chart

 
Airport distance calculator
Flying to Hasting Airpark? Find the distance to fly.

From to MS80

Sunrise and sunset
Times for 23-Sep-2021
 Local
(UTC-5)
 Zulu
(UTC)
Morning civil twilight06:2211:22
Sunrise06:4711:47
Sunset18:5223:52
Evening civil twilight19:1700:17

Current date and time
Zulu (UTC)  23-Sep-2021 20:33:35
Local (UTC-5)  23-Sep-2021 15:33:35
 
METAR
KUOX 
25nm NW 
232015Z AUTO VRB05KT 10SM CLR 22/09 A3009 RMK AO2 PWINO
KTUP 
32nm NE 
231953Z VRB06KT 10SM CLR 24/08 A3007 RMK AO2 SLP179 T02390078 $
KPMU 
36nm NW 
232015Z AUTO RMK AO2 PNO PWINO TSNO
K5A6 
38nm SW 
232015Z AUTO 36005KT 10SM CLR 23/09 A3007 RMK AO2 T02310089
KSTF 
41nm SE 
232015Z AUTO VRB05G12KT 10SM CLR 23/08 A3005 RMK AO2
KM40 
42nm E 
232015Z AUTO VRB07KT 10SM CLR 24/10 A3008 RMK AO2
KCBM 
48nm SE 
231956Z AUTO 34006KT 10SM CLR 23/09 A3006 RMK AO2 SLP181 T02320088 $
KGWO 
49nm SW 
231953Z AUTO 35009G16KT 10SM CLR 25/09 A3007 RMK AO2 SLP182 T02500089
KGTR 
50nm SE 
231956Z 35010G15KT 10SM CLR 24/09 A3007 RMK AO2 SLP189 T02390094
TAF
KTUP 
32nm NE 
231724Z 2318/2418 36006KT P6SM SKC FM240000 00000KT P6SM SKC FM241500 12004KT P6SM SKC
NOTAMs
Click for the latest NOTAMs
NOTAMs are issued by the DoD/FAA and will open in a separate window not controlled by AirNav.

 

 
 

Would you like to see your business listed on this page?

 If your business provides an interesting product or service to pilots, flight crews, aircraft, or users of the Hasting Airpark, you should consider listing it here.  To start the listing process, click on the button below
 
Add a business
 

Other Pages about Hasting Airpark

Update a link
 
Copyright © AirNav, LLC. All rights reserved. Privacy Policy  Contact